TimeCST,TemperatureF,Dew PointF,Humidity,Sea Level PressureIn,VisibilityMPH,Wind Direction,Wind SpeedMPH,Gust SpeedMPH,PrecipitationIn,Events,Conditions,WindDirDegrees,DateUTC
12:15 AM,23.0,16.3,76,30.09,10.0,NW,6.9,-,N/A,,Mostly Cloudy,310,2012-12-29 06:15:00
12:35 AM,23.0,16.0,74,30.09,10.0,NW,5.8,-,N/A,,Mostly Cloudy,310,2012-12-29 06:35:00
12:55 AM,23.0,16.2,75,30.09,10.0,NW,8.1,-,N/A,,Mostly Cloudy,320,2012-12-29 06:55:00
1:15 AM,23.0,16.0,74,30.10,10.0,NW,8.1,-,N/A,,Mostly Cloudy,320,2012-12-29 07:15:00
1:35 AM,23.0,15.6,73,30.10,10.0,NNW,9.2,-,N/A,,Mostly Cloudy,330,2012-12-29 07:35:00
1:55 AM,23.0,15.4,73,30.11,10.0,NW,8.1,-,N/A,,Mostly Cloudy,320,2012-12-29 07:55:00
2:15 AM,23.2,15.1,71,30.12,10.0,NNW,13.8,17.3,N/A,,Scattered Clouds,340,2012-12-29 08:15:00
2:35 AM,23.4,14.4,68,30.12,10.0,NNW,8.1,17.3,N/A,,Mostly Cloudy,340,2012-12-29 08:35:00
2:55 AM,23.2,14.5,70,30.14,10.0,NNW,11.5,-,N/A,,Overcast,340,2012-12-29 08:55:00
3:15 AM,23.0,14.9,71,30.14,10.0,NNW,9.2,18.4,N/A,,Overcast,330,2012-12-29 09:15:00
3:35 AM,23.0,15.4,73,30.14,10.0,NNW,10.4,-,N/A,,Mostly Cloudy,330,2012-12-29 09:35:00
3:55 AM,23.0,15.8,74,30.15,10.0,NNW,9.2,-,N/A,,Overcast,330,2012-12-29 09:55:00
4:15 AM,23.0,15.8,74,30.15,10.0,NNW,11.5,-,N/A,,Overcast,330,2012-12-29 10:15:00
4:35 AM,23.0,15.8,74,30.16,10.0,NNW,9.2,-,N/A,,Overcast,330,2012-12-29 10:35:00
4:55 AM,23.0,15.6,73,30.16,10.0,NNW,10.4,-,N/A,,Overcast,340,2012-12-29 10:55:00
5:15 AM,23.0,15.3,72,30.17,10.0,NNW,13.8,-,N/A,,Overcast,340,2012-12-29 11:15:00
5:35 AM,23.0,14.9,71,30.18,10.0,NNW,11.5,17.3,N/A,,Overcast,330,2012-12-29 11:35:00
6:15 AM,23.0,15.3,72,30.20,10.0,NNW,11.5,-,N/A,,Overcast,330,2012-12-29 12:15:00
6:35 AM,22.3,14.7,73,30.21,10.0,NNW,8.1,17.3,N/A,,Overcast,340,2012-12-29 12:35:00
6:55 AM,22.1,14.9,74,30.22,10.0,NW,6.9,-,N/A,,Overcast,320,2012-12-29 12:55:00
7:15 AM,21.9,14.9,74,30.24,10.0,NNW,5.8,-,N/A,,Overcast,330,2012-12-29 13:15:00
7:35 AM,21.9,15.4,76,30.24,7.0,NNW,6.9,-,N/A,,Overcast,330,2012-12-29 13:35:00
7:55 AM,21.6,15.4,77,30.25,7.0,NW,6.9,-,N/A,,Overcast,320,2012-12-29 13:55:00
8:15 AM,21.2,15.1,77,30.27,7.0,NW,6.9,-,N/A,,Overcast,320,2012-12-29 14:15:00
8:35 AM,21.0,15.3,78,30.28,7.0,NNW,6.9,-,N/A,,Mostly Cloudy,330,2012-12-29 14:35:00
8:55 AM,21.2,15.4,78,30.28,7.0,NW,3.5,-,N/A,,Scattered Clouds,320,2012-12-29 14:55:00
9:15 AM,21.7,16.0,78,30.29,10.0,WNW,5.8,-,N/A,,Scattered Clouds,290,2012-12-29 15:15:00
9:35 AM,21.9,15.8,77,30.30,10.0,West,5.8,-,N/A,,Scattered Clouds,270,2012-12-29 15:35:00
9:55 AM,22.6,16.0,76,30.31,10.0,West,8.1,-,N/A,,Scattered Clouds,270,2012-12-29 15:55:00
10:15 AM,23.2,15.8,73,30.32,10.0,NW,5.8,-,N/A,,Clear,310,2012-12-29 16:15:00
10:35 AM,24.6,16.0,70,30.31,10.0,NW,6.9,-,N/A,,Clear,310,2012-12-29 16:35:00
10:55 AM,26.1,16.3,67,30.31,10.0,WNW,3.5,-,N/A,,Clear,290,2012-12-29 16:55:00
11:15 AM,27.9,16.9,63,30.31,10.0,West,6.9,-,N/A,,Clear,270,2012-12-29 17:15:00
11:35 AM,30.2,17.6,60,30.31,10.0,West,10.4,-,N/A,,Clear,280,2012-12-29 17:35:00
11:55 AM,30.7,16.9,56,30.31,10.0,West,10.4,-,N/A,,Clear,260,2012-12-29 17:55:00
12:15 PM,30.7,16.0,54,30.30,10.0,WNW,5.8,16.1,N/A,,Clear,290,2012-12-29 18:15:00
12:35 PM,31.3,15.1,51,30.28,10.0,NW,8.1,-,N/A,,Clear,310,2012-12-29 18:35:00
12:55 PM,32.4,15.3,49,30.27,10.0,WNW,5.8,-,N/A,,Clear,300,2012-12-29 18:55:00
1:15 PM,33.1,15.1,48,30.27,10.0,NNW,9.2,-,N/A,,Clear,330,2012-12-29 19:15:00
1:35 PM,34.7,15.4,45,30.27,10.0,NW,6.9,-,N/A,,Clear,320,2012-12-29 19:35:00
1:55 PM,35.6,15.4,44,30.27,10.0,WNW,5.8,-,N/A,,Clear,290,2012-12-29 19:55:00
2:15 PM,35.6,15.3,43,30.27,10.0,NW,6.9,-,N/A,,Clear,310,2012-12-29 20:15:00
2:35 PM,35.6,15.3,43,30.27,10.0,NW,5.8,-,N/A,,Clear,310,2012-12-29 20:35:00
2:55 PM,35.8,15.1,43,30.28,10.0,West,4.6,-,N/A,,Clear,270,2012-12-29 20:55:00
3:15 PM,36.9,15.6,42,30.29,10.0,West,6.9,-,N/A,,Clear,280,2012-12-29 21:15:00
3:35 PM,37.8,16.0,41,30.29,10.0,West,10.4,-,N/A,,Clear,270,2012-12-29 21:35:00
3:55 PM,37.9,16.3,42,30.29,10.0,West,9.2,-,N/A,,Clear,260,2012-12-29 21:55:00
4:15 PM,37.9,16.5,42,30.30,10.0,West,9.2,-,N/A,,Clear,260,2012-12-29 22:15:00
4:35 PM,37.6,16.7,43,30.30,10.0,West,8.1,-,N/A,,Clear,270,2012-12-29 22:35:00
4:55 PM,36.3,16.2,44,30.31,10.0,WSW,5.8,-,N/A,,Clear,250,2012-12-29 22:55:00
5:15 PM,35.6,16.9,47,30.31,10.0,WSW,4.6,-,N/A,,Clear,240,2012-12-29 23:15:00
5:35 PM,34.3,17.1,49,30.31,10.0,SW,5.8,-,N/A,,Clear,220,2012-12-29 23:35:00
5:55 PM,31.8,15.8,52,30.31,10.0,SW,4.6,-,N/A,,Clear,220,2012-12-29 23:55:00
6:15 PM,31.6,15.8,52,30.31,10.0,SSW,4.6,-,N/A,,Clear,210,2012-12-30 00:15:00
6:35 PM,30.7,16.0,54,30.32,10.0,SSW,4.6,-,N/A,,Clear,200,2012-12-30 00:35:00
6:55 PM,30.7,16.9,56,30.32,10.0,SSW,3.5,-,N/A,,Clear,200,2012-12-30 00:55:00
7:15 PM,30.2,16.7,57,30.34,10.0,WSW,3.5,-,N/A,,Clear,240,2012-12-30 01:15:00
7:35 PM,27.3,17.2,66,30.33,10.0,South,3.5,-,N/A,,Clear,180,2012-12-30 01:35:00
7:55 PM,26.1,16.0,66,30.33,10.0,Calm,Calm,-,N/A,,Clear,0,2012-12-30 01:55:00
8:15 PM,27.3,16.7,64,30.33,10.0,SSW,5.8,-,N/A,,Clear,200,2012-12-30 02:15:00
8:35 PM,26.2,16.2,66,30.32,10.0,Calm,Calm,-,N/A,,Clear,0,2012-12-30 02:35:00
8:55 PM,24.8,15.6,68,30.32,10.0,SSW,6.9,-,N/A,,Clear,200,2012-12-30 02:55:00
9:15 PM,25.7,16.0,67,30.32,10.0,SSW,5.8,-,N/A,,Clear,210,2012-12-30 03:15:00
9:35 PM,25.7,16.0,67,30.34,10.0,SSW,6.9,-,N/A,,Clear,210,2012-12-30 03:35:00
9:55 PM,26.1,16.5,67,30.34,10.0,SW,8.1,-,N/A,,Clear,220,2012-12-30 03:55:00
10:15 PM,26.8,16.9,66,30.34,10.0,SSW,6.9,-,N/A,,Clear,210,2012-12-30 04:15:00
10:35 PM,27.1,17.1,66,30.34,10.0,SSW,5.8,-,N/A,,Clear,210,2012-12-30 04:35:00
10:55 PM,26.1,16.3,67,30.35,10.0,SSW,8.1,-,N/A,,Clear,210,2012-12-30 04:55:00
11:15 PM,25.7,16.7,69,30.36,10.0,SSW,6.9,-,N/A,,Clear,210,2012-12-30 05:15:00
11:35 PM,25.7,16.5,68,30.36,10.0,SW,8.1,-,N/A,,Clear,220,2012-12-30 05:35:00
11:55 PM,26.2,17.1,68,30.36,10.0,SSW,6.9,-,N/A,,Clear,210,2012-12-30 05:55:00